Estación Meteorológica Peña el Pijo (Robertgarden) [ 07/11/20 03:17:23 CEST ]

Fecha Hora Presion(HPa) Temp (°C) Humedad % Rocio (°C) Viento ( m/s) Direccion Lluvia 1Hora(mm) Lluvia 24H(mm) LLuvia Total(mm)
2019-Dec-22 01:08:55 1003.600 - - - - WNW     39.88
2019-Dec-22 02:09:25 1003.200 - - - - WNW     39.88
2019-Dec-22 03:38:57 1004.300 - - - - WNW     39.88
2019-Dec-22 04:12:34 1004.500 - - - - WNW     39.88
2019-Dec-22 05:10:46 1004.600 - - - - WNW     39.88
2019-Dec-22 06:09:45 1004.800 - - - - WNW     39.88
2019-Dec-22 07:09:02 1006.000 - - - - WNW     39.88
2019-Dec-22 08:08:57 1006.000 - - - - WNW     39.88
2019-Dec-22 09:09:09 1007.200 - - - - WNW     39.88
2019-Dec-22 10:09:21 1007.700 - - - - WNW     39.88
2019-Dec-22 11:09:17 1008.400 - - - - WNW     39.88
2019-Dec-22 12:09:35 1008.500 - - - - WNW     39.88
2019-Dec-22 13:09:11 1008.000 - - - - WNW     39.88
2019-Dec-22 14:08:55 1007.700 - - - - WNW     39.88
2019-Dec-22 15:08:50 1006.600 - - - - WNW     39.88
2019-Dec-22 16:09:03 1007.200 - - - - WNW     39.88
2019-Dec-22 17:09:05 1007.700 - - - - WNW     39.88
2019-Dec-22 18:09:39 1008.500 - - - - WNW     39.88
2019-Dec-22 19:09:10 1009.300 - - - - WNW     39.88
2019-Dec-22 20:09:21 1010.100 - - - - WNW     39.88
2019-Dec-22 21:09:18 1010.800 - - - - WNW     39.88
2019-Dec-22 22:09:20 1011.200 - - - - WNW     39.88
2019-Dec-22 23:09:50 1011.400 - - - - WNW     39.88

Temperatura Máxima:    Temperatura Mínima:
Presión Máxima:1011.400 Hpa    Presión Mínima:1003.200 Hpa


Volver